Location: Chester
(43.2647°N, 72.5958°W)
Time: 22:25:11
(UTC-05:00)

OTV 5 (USA 277) - Visible Passes

Search period start: 18 November 2018 00:00
Search period end: 28 November 2018 00:00
Orbit: 339 x 348 km, 54.5° (Epoch: 14 November)

Date Brightness Start Highest point End Pass type
(mag) Time Alt. Az. Time Alt. Az. Time Alt. Az.
23 Nov ? 05:50:06 10° SE 05:50:57 11° SE 05:51:47 10° ESE visible
24 Nov ? 06:11:31 10° SSW 06:14:10 34° SE 06:16:49 10° ENE visible
25 Nov ? 05:02:35 10° SE 05:03:07 10° SE 05:03:38 10° ESE visible
26 Nov ? 05:23:41 10° SSW 05:26:18 32° SE 05:28:56 10° ENE visible
27 Nov ? 05:47:27 15° WSW 05:49:43 71° NW 05:52:35 10° NE visible
